Location: Ellingshausen
(50.5460°N, 10.4723°E)
Time: 13:45:23
(UTC+00:00)

Cosmos 676 Rocket - Pass Details

Date: 19 April 2026
Orbit: 750 x 779 km, 74.0° (Epoch: 19 May)

Event Time Altitude Azimuth Distance (km) Brightness Sun altitude
Rises 21:24:21 0° 340° (NNW) 3,268 8.6 -23.3°
Reaches altitude 10° 21:27:05 10° 352° (N) 2,333 7.4 -23.6°
Maximum altitude 21:31:38 28° 51° (NE) 1,414 5.4 -23.9°
Enters shadow 21:33:03 25° 78° (ENE) 1,524 5.4 -24.0°
